Volver al catálogo

HJS-4C

ActivoCienciaLEO
NORAD 58693·PAYLOAD·🇨🇳 China

Lanzado Dec 30, 2023 desde Jiuquan Satellite Launch Center

Loading…

Próximos Pases (próximas 24 horas)

TLE

ActualizadoSource: Space-Track

Época: Sep 14, 2026, 14:55 UTC

1 58693U 23212C   26257.62182049 -.00000114  00000-0  25490-4 0  9996
2 58693  50.0006  16.5566 0000607  29.0575 331.0336 13.41465051133268

Sigue HJS-4C en tiempo real con AllMySat

Download on the App Store